Weather in Monastirishe

Ukraine / Cherkassi District     48°59′41″N   29°48′40″E
temp.,
°C
wind,
m/s
gust,
m/s
humid.,
%
clouds,
%
prec.,
mm/h
press.,
hPa
HPBL,
m
8 may, sat
sat800:00+11ssw3799100 2.0 1008295
03:00+10wsw2598100 4.4 1006175
06:00+9w4995100 1.4 1007379
09:00+8wnw101390100 1.8 1010865
12:00+10wnw101274100 0.1 10121557
15:00+8nw9127090 0.4 10151424
18:00+7nw813735 0.1 10171248
21:00+5nnw511795 0.1 1019412
9 may, sun
sun900:00+3wnw39895 0.0 1021226
03:00+2nw39941 0.0 1022213
06:00+2wnw37930 0.0 1024148
09:00+8nw46680 0.0 1026664
12:00+11nw46538 0.0 10251736
15:00+12nw3448100 0.1 10251798
18:00+13nw235453 0.0 10251047
21:00+8n116334 0.0 102710
10 may, mon
mon1000:00+6e22704 0.0 102810
03:00+5sse12721 0.0 102810
06:00+5se22750 0.0 102913
09:00+11se34625 0.0 1029387
12:00+14se34510 0.0 10291480
15:00+16se22464 0.0 10271558
18:00+16ese23502 0.0 10261480
21:00+10e47740 0.0 1027109
11 may, tue
tue1100:00+7e47760 0.0 1028103
03:00+6e33770 0.0 102728
06:00+6ne22770 0.0 102625
09:00+12ne58630 0.0 1025604
12:00+15ne56515 0.0 1023920
15:00+17ne56556 0.0 10211150
18:00+17ne56655 0.0 10201102
21:00+12e61087100 0.0 1020466
12 may, wed
wed1200:00+9ene37950 0.0 1020169
03:00+7ene389776 0.0 1019202
06:00+6ne399445 0.0 1018246
09:00+10ene587425 0.0 1017867
12:00+11ene5668100 0.0 10161211
15:00+11ene356671 0.0 1014968
18:00+13e3466100 0.2 1013561
21:00+9e348193 0.4 101268